Find Haven-Demo

NORAD ID: 66312 Int'l Des: 2025-248 Owner: VASTSP Country: US decayed
LEO

Historical Track — Feb 5, 2026

Loading 3D Globe...

About Haven-Demo

Description loading...

Altitude History

Loading altitude history...

Two-Line Element Set

1 66312U 25248T 26038.25235715 .00058433 00000-0 75011-3 0 9998
2 66312 45.3987 95.1613 0125848 328.6136 30.7295 15.49394688 15939
Epoch: Feb 7, 2026 • Age: 1665 hours

Current Status

Altitude 357.8 km
Velocity 7.72 km/s
Sub-Earth Point 43.59°N, 60.22°E
Launch Date Nov 2, 2025
Age 0.4 years
Decay Date Feb 5, 2026
Type other

Technical Details

Classification Payload
Mass 515.00 kg
Dry Mass 515.00 kg
Total Mass 515.00 kg
Length 0.70 m
Diameter 1.00 m
Span 1.00 m
Shape Box + pan
Manufacturer VASTSP
Bus Type Haven-Demo
Phase Status Unknown Transfer Status
Owner/State VASTSP/US

Most Searched